Regional Weather Roundup
Issued by NWS Charleston, SC

Current Version | Previous Version | Text Only | Print | Product List | Glossary Off
Versions: 1 2 3 4 5 6 7 8 9 10 11 12 13 14 15 16 17 18 19 20 21 22 23 24 25 26 27 28 29 30 31 32 33 34 35 36 37 38 39 40 41 42 43 44 45 46 47 48 49 50

000
ASUS42 KCHS 210112
RWRCHS

REGIONAL WEATHER ROUNDUP
NATIONAL WEATHER SERVICE CHARLESTON SC
800 PM EST MON FEB 20 2017

NOTE: "FAIR" INDICATES FEW OR NO CLOUDS BELOW 12,000 FEET WITH NO
SIGNIFICANT WEATHER AND/OR OBSTRUCTIONS TO VISIBILITY.

NOT ALL STATIONS ARE QUALITY CONTROLLED. USE DATA WITH CAUTION...
ESPECIALLY DEWPOINT OBSERVATIONS.

SCZ027-030-031-034>040-042>050-210200-
...SOUTHEAST SOUTH CAROLINA...

CITY           SKY/WX    TMP DP  RH WIND       PRES   REMARKS
N CHARLESTON   PTCLDY    61  49  64 CALM      30.18R
WATERFRONT PRK   N/A     60  57  89 VRB3      30.17R
MOUNT PLEASANT FAIR      55  54  94 CALM      30.19R
JOHNS ISLAND   FAIR      59  55  88 CALM      30.18S
PINOPOLIS        N/A     64  48  55 CALM      30.09R
MONCKS CORNER  FAIR      57  46  67 CALM      30.18S
SUMMERVILLE    FAIR      63  45  51 CALM      30.19R
BEAUFORT MCAS  PTCLDY    61  56  83 CALM      30.17R
BEAUFORT ARPT  FAIR      59  55  88 CALM      30.17R
HILTON HEAD IS NOT AVBL
WALTERBORO     PTCLDY    59  50  72 CALM      30.18S
ALLENDALE      FAIR      61  50  67 CALM      30.15S

...SOUTHERN MIDLANDS AND PEE DEE...

CITY           SKY/WX    TMP DP  RH WIND       PRES   REMARKS
GEORGETOWN     FAIR      55  54  94 E3        30.20R
KINGSTREE      FAIR      59  46  63 E3        30.18S
ORANGEBURG     PTCLDY    60  45  57 CALM      30.16S
BARNWELL       FAIR      57  52  82 CALM      30.16S
AIKEN          FAIR      54  45  71 CALM      30.19F
MANNING        FAIR      57  28  33 MISG      30.18R
COLUMBIA       PTCLDY    60  48  64 CALM      30.16S
SUMTER         CLOUDY    58  46  63 CALM      30.14F
FLORENCE       PTCLDY    61  49  64 CALM      30.18R
MYRTLE BEACH   CLEAR     57  52  82 E7        30.20S
N MYRTLE BEACH PTCLDY    58  52  80 E5        30.19R

$$

GAZ063-065-086>088-099>101-113>116-118-119-134>141-150-210200-
...SOUTHEAST GEORGIA...

CITY           SKY/WX    TMP DP  RH WIND       PRES   REMARKS
SAVANNAH ARPT  CLOUDY    62  48  60 E3        30.16S
HUNTER AAF     CLOUDY    59  54  84 E3        30.14R
FORT STEWART   PTCLDY    61  47  61 CALM      30.14R
STATESBORO     CLOUDY    66  52  59 SE6       30.15S
SYLVANIA       CLOUDY   N/A N/A N/A CALM      30.17R
CLAXTON        FAIR     N/A N/A N/A CALM      30.15R

...CSRA...CENTRAL AND FAR SOUTHEAST GEORGIA...

CITY           SKY/WX    TMP DP  RH WIND       PRES   REMARKS
THOMSON        MOCLDY    59  52  77 CALM      30.20S
AUGUSTA-BUSH   CLOUDY    58  47  66 CALM      30.15R
AUGUSTA-DANIEL PTCLDY    67  43  41 E3        30.16S
SWAINSBORO     FAIR      61  52  72 CALM      30.15R
VIDALIA        PTCLDY    64  55  72 CALM      30.14S
EASTMAN        FAIR      62  45  54 CALM      30.16R
HAZLEHURST     FAIR      68  54  60 E5        30.12S
ALMA           CLOUDY    67  52  58 E6        30.13R
WAYCROSS       CLOUDY    69  55  61 SE8       30.14R
JESUP          FAIR      63  48  59 CALM      30.16R
BAXLEY         FAIR      68  55  64 SE3       30.14R
BRUNSWICK      CLOUDY    59  57  94 CALM      30.16S
SAINT SIMONS   PTCLDY    60  56  86 NE3       30.15S

$$

SCZ027-028-034-036>038-045-046-048>050-GAZ119-141-210200-
...LAKE AND SUPPLEMENTAL COASTAL OBSERVATIONS...

STATION/POSITION TIME  TEMP    WIND        PRES    WAVE   SWELL
                       AIR SEA DIR/SP/G            HT/PER HT/PER/DIR
                 (UTC) (F)     (DEG/KT/KT) (MB)    (FT/S) (FT/S/D)
WINYAH BAY       2345   58      80/  4     1022.0
LAKE MURRAY      0020   61        CALM     1021.0R
ACE BASIN NERRS  NOT AVBL
FORT PULASKI     0048   61 61   80/  4/  5 1021.6R
SAPELO ISLAND    0000   60      80/  4     1021.0

$$

ANZ835-935-AMZ111-154-330-350-352-354-370-450-454-472-210200-
...C-MAN AND BUOY OBSERVATIONS...

STATION/POSITION TIME  TEMP    WIND        PRES    WAVE   SWELL
                       AIR SEA DIR/SP/G            HT/PER HT/PER/DIR
                 (UTC) (F)     (DEG/KT/KT) (MB)    (FT/S) (FT/S/D)
BUOY 41004       0050   66 68   40/  8/  8 1021.4R   2/ 4   2/ 40/ 4
BUOY 41008       2350   62 63   60/  8/  8 1020.8    1/ 6
FOLLY BEACH CMAN 0000   60      90/  4/  5 1022.2R
CAPERS NEARSHORE NOT AVBL
FRIPP NEARSHORE  0008   61 60  110/  6/  8 1021.2S


STATION/POSITION TIME  TEMP    WIND        PRES    WAVE   SWELL
                       AIR SEA DIR/SP/G            HT/PER HT/PER/DIR
                 (UTC) (F)     (DEG/KT/KT) (MB)    (FT/S) (FT/S/D)
5E ST. MARYS GA  0030      64                N/A     1/10
FRYING PAN BUOY  0050   66 65   70/ 10/ 14 1021.9S   4/ 6   2/ 60/ 6
BUOY 41025       0050   59 65   30/ 17/ 21 1022.9R   4/ 5   2/ 40/11
CAPE LOOKOUT NC  0000   58      40/ 14/ 15 1022.6R
BUOY 41002       0050   70 71   20/ 17/ 19 1020.1R   5/ 7
BUOY 41010       NOT AVBL
ST AUGUSTINE FL  0100   67 69   50/  8/  9 1021.4R


$$



USA.gov is the U.S. government's official web portal to all federal, state and local government web resources and services.